Zurück zum Katalog

ARIANE 42P+3 R/B

AktivHEO
NORAD 23847·ROCKET BODY·🇫🇷 France

Gestartet Apr 20, 1996 von Guiana Space Centre

Loading…

Nächste Überflüge (nächste 24 Stunden)

TLE

AktuellSource: Space-Track

Epoche: Sep 14, 2026, 19:59 UTC

1 23847U 96022B   26257.83331728  .00001315  00000-0  74942-3 0  9999
2 23847   6.9405 302.4480 6536249 149.9735 273.3242  3.22893759309232

Verfolge ARIANE 42P+3 R/B in Echtzeit mit AllMySat

Download on the App Store